Volver al catálogo

DELTA 1 DEB

ActivoLEO
NORAD 21674·DEBRIS·🇺🇸 United States

Lanzado Jun 12, 1975 desde Vandenberg Space Force Base

Loading…

Próximos Pases (próximas 24 horas)

TLE

ActualizadoSource: Space-Track

Época: Sep 14, 2026, 04:58 UTC

1 21674U 75052JA  26257.20701557  .00003467  00000-0  75509-3 0  9997
2 21674 100.0533 167.4172 0096079 237.7499 121.4354 14.55996502823845

Sigue DELTA 1 DEB en tiempo real con AllMySat

Download on the App Store